sat.trackr.live / text

‹ back to catalog

SES-21

NORAD 53961 · 2022-123B

PAYLOAD ACTIVE UNKNOWN

§ Identity

Operator
Country
SES
Launch date
2022-10-04
Launch site
AFETR
Launch vehicle
Mass (kg)
RCS (m²)

Purposes: comms

External: N2YO · Heavens-Above · Gunter

§ Orbital elements

Epoch: 2026-09-19T00:57:07.422336Z

Period
1,436.06 min
Inclination
0.0340°
Eccentricity
0.0001240
Mean motion
1.00274254 rev/d
Perigee alt
35,780.7 km
Apogee alt
35,791.1 km
Semi-major
42,164.0 km
B*
0.0000e+0
RAAN
63.7792°
Arg perigee
121.0485°
Mean anomaly
56.4175°
Rev number
815

§ Raw data

SES-211 53961U 22123B   26262.03966924  .00000065  00000+0  00000+0 0  99902 53961   0.0340  63.7792 0001240 121.0485  56.4175  1.00274254  8152

JSON: /api/v1/satellites/53961 · /tle

For live sub-satellite position, see the globe view (requires WebGL).

§ Visibility from observer

Set your observer location to see the next 7 days of passes ≥ 10°. The values pass through the URL so the page stays shareable.

No JS? Fill the form by hand. The geolocation button needs JavaScript.